Regional Weather Roundup
Issued by NWS

Home | Current Version | Previous Version | Graphics & Text | Print | Product List | Glossary Off
Versions: 1 2 3 4 5 6 7 8 9 10 11 12 13 14 15 16 17 18 19 20 21 22 23 24 25 26 27 28 29 30 31 32 33 34 35 36 37 38 39 40 41 42 43 44 45 46 47 48 49 50

000
ASUS43 KLSX 241759
RWRMO

WEATHER SUMMARY FOR MISSOURI
NATIONAL WEATHER SERVICE SPRINGFIELD MO
100 PM CDT SAT JUN 24 2017

NOTE: "FAIR" INDICATES FEW OR NO CLOUDS BELOW 12,000 FEET WITH NO
       SIGNIFICANT WEATHER AND/OR OBSTRUCTIONS TO VISIBILITY.
       CURRENT SKY AND/OR WEATHER CONDITIONS ARE NOT AVAILABLE FOR
       CHILLICOTHE AND FARMINGTON.

MOZ001>031-035>038-043-044-053-054-241900-
...NORTHERN AND WESTERN MISSOURI...

CITY           SKY/WX    TMP DP  RH WIND       PRES   REMARKS
KANSAS CTY INT MOSUNNY   75  46  35 VRB3      30.24F
6HR MIN TEMP:  59; 6HR MAX TEMP:  75;

KANSAS C DTWN  SUNNY     77  43  29 CALM      30.22F
6HR MIN TEMP:  63; 6HR MAX TEMP:  77;

LEE`S SUMMIT   SUNNY     75  41  29 NW13      30.24S
6HR MIN TEMP:  62; 6HR MAX TEMP:  76;

ST JOSEPH      SUNNY     76  42  29 MISG      30.23S
6HR MIN TEMP:  55; 6HR MAX TEMP:  76;

CHILLICOTHE      N/A     74  41  30 VRB5G17   30.22S
6HR MIN TEMP:  62; 6HR MAX TEMP:  75;

KIRKSVILLE     SUNNY     74  43  32 NW12G22   30.19F
6HR MIN TEMP:  58; 6HR MAX TEMP:  74;


$$
MOZ066>068-077>081-088>096-101>105-241900-
...SOUTHWEST MISSOURI...

CITY           SKY/WX    TMP DP  RH WIND       PRES   REMARKS
SPRINGFIELD    CLOUDY    76  52  43 N12       30.21S
6HR MIN TEMP:  60; 6HR MAX TEMP:  76;

JOPLIN         SUNNY     79  53  40 N12       30.23S
6HR MIN TEMP:  63; 6HR MAX TEMP:  79;

BRANSON        PTSUNNY   75  52  43 N5        30.23R

$$
MOZ032>034-039>042-045>050-055>058-069>072-241900-
...CENTRAL MISSOURI...

CITY           SKY/WX    TMP DP  RH WIND       PRES   REMARKS
COLUMBIA       SUNNY     75  45  34 NW16      30.18S
6HR MIN TEMP:  61; 6HR MAX TEMP:  75;

JEFFERSON CITY SUNNY     76  45  33 W14       30.18R
6HR MIN TEMP:  60; 6HR MAX TEMP:  77;

ROLLA          SUNNY     75  51  43 W13G20    30.17F
6HR MIN TEMP:  61; 6HR MAX TEMP:  75;

SEDALIA        SUNNY     76  47  35 NW12      30.22S
6HR MIN TEMP:  61; 6HR MAX TEMP:  76;

WARRENSBURG    SUNNY     73  41  31 NW10G18   30.22S
OSAGE BEACH    SUNNY     75  47  36 W10G17    30.20S

$$
MOZ051-052-059>065-241900-
...EAST CENTRAL MISSOURI...

CITY           SKY/WX    TMP DP  RH WIND       PRES   REMARKS
ST LOUIS INTL  MOSUNNY   79  47  32 NW12G22   30.14S
6HR MIN TEMP:  68; 6HR MAX TEMP:  79;

SPIRIT OF STL  MOSUNNY   77  50  38 NW12G20   30.13F
6HR MIN TEMP:  65; 6HR MAX TEMP:  77;

ST CHARLES     MOSUNNY   77  47  34 W16G22    30.12F
6HR MIN TEMP:  66; 6HR MAX TEMP:  77;


$$
MOZ072>076-082>087-097>100-106>115-241900-
...SOUTH CENTRAL AND SOUTHEAST MISSOURI...

CITY           SKY/WX    TMP DP  RH WIND       PRES   REMARKS
CAPE GIRARDEAU MOSUNNY   77  55  46 N9        30.11S
6HR MIN TEMP:  65; 6HR MAX TEMP:  78;

FARMINGTON     MOSUNNY   74  50  42 W9G18     30.16S
6HR MIN TEMP:  63; 6HR MAX TEMP:  75;

POPLAR BLUFF   MOSUNNY   79  59  50 VRB6      30.12S
6HR MIN TEMP:  65; 6HR MAX TEMP:  79;

WEST PLAINS    MOSUNNY   76  53  44 VRB7G17   30.20R
6HR MIN TEMP:  64; 6HR MAX TEMP:  78;


$$



USA.gov is the U.S. government's official web portal to all federal, state and local government web resources and services.